Florence, KY

10:05 PM EST on February 20, 2017 (GMT -0500)
Cincinnati-Northern KY International

Weather History for KCVG - January, 2014

Change the Weather History Date:

Wednesday, January 8, 2014

  Actual Average Record
Temperature  
Mean Temperature 19 °F 31 °F  
Max Temperature 29 °F 38 °F 67 °F (1937)
Min Temperature 8 °F 23 °F -10 °F (1968)
Degree Days  
Heating Degree Days 46 34  
Month to date heating degree days 357 272  
Since 1 July heating degree days 2308 2191  
Cooling Degree Days 0 0  
Month to date cooling degree days 0 0  
Year to date cooling degree days 0 0  
Moisture  
Dew Point 13 °F    
Average Humidity 67    
Maximum Humidity 76    
Minimum Humidity 58    
Precipitation  
Precipitation 0.01 in 0.10 in 1.66 in (1920)
Month to date precipitation 1.00 0.80  
Year to date precipitation 1.00 0.80  
Snow  
Snow 0.20 in 0.20 in 5.20 in (1926)
Month to date snowfall 5.2 1.5  
Since 1 July snowfall 18.0 7.1  
Snow Depth 0.00 in    
Sea Level Pressure  
Sea Level Pressure 30.44 in    
Wind  
Wind Speed 6 mph (SSW)    
Max Wind Speed 13 mph    
Max Gust Speed 16 mph    
Visibility 9 miles    
Events Snow    
T = Trace of Precipitation, MM = Missing Value Source: NWS Daily Summary

Daily Weather History Graph

Daily Weather History Graph

Search for Another Location

Airport or City:

Trip Planner

Search our weather history database for the weather conditions in past years. The results will help you decide how hot, cold, wet, or windy it might be!

Date:

Astronomy

Jan. 08, 2014 Rise Set
Actual Time 7:57 AM EST 5:33 PM EST
Civil Twilight 7:28 AM EST 6:02 PM EST
Nautical Twilight 6:54 AM EST 6:36 PM EST
Astronomical Twilight 6:22 AM EST 7:08 PM EST
Moon 12:23 PM EST (1/8) 1:04 AM EST (1/8)
Length of Visible Light 10h 34m
Length of Day
9h 35m
First Quarter, 56% of the Moon is Illuminated
Jan 8
First Quarter
Jan 15
Full
Jan 24
Last Quarter
Jan 30
New
Feb 6
First Quarter

Hourly Weather History & Observations

Time (EST) Temp. Windchill Dew Point Humidity Pressure Visibility Wind Dir Wind Speed Gust Speed Precip Events Conditions
12:52 AM 8.1 °F -2.0 °F 1.9 °F 76% 30.42 in 10.0 mi South 5.8 mph - N/A   Partly Cloudy
1:52 AM 8.1 °F -2.0 °F 1.0 °F 73% 30.43 in 10.0 mi South 5.8 mph - N/A   Clear
2:52 AM 9.0 °F -3.2 °F 1.9 °F 73% 30.43 in 10.0 mi South 8.1 mph - N/A   Partly Cloudy
3:52 AM 10.0 °F -1.9 °F 3.0 °F 73% 30.43 in 10.0 mi South 8.1 mph - N/A   Partly Cloudy
4:52 AM 10.9 °F -0.8 °F 3.9 °F 73% 30.42 in 10.0 mi South 8.1 mph - N/A   Mostly Cloudy
5:52 AM 10.9 °F -0.8 °F 5.0 °F 77% 30.42 in 10.0 mi South 8.1 mph - N/A   Overcast
6:52 AM 12.0 °F 1.5 °F 5.0 °F 73% 30.41 in 10.0 mi South 6.9 mph - N/A   Mostly Cloudy
7:52 AM 12.9 °F 1.6 °F 6.1 °F 74% 30.43 in 10.0 mi South 8.1 mph - N/A   Mostly Cloudy
8:52 AM 15.1 °F 5.2 °F 8.1 °F 74% 30.45 in 10.0 mi SSW 6.9 mph - N/A   Mostly Cloudy
9:52 AM 18.0 °F 6.1 °F 9.0 °F 68% 30.47 in 10.0 mi SSW 10.4 mph - N/A   Mostly Cloudy
10:52 AM 19.9 °F 10.1 °F 10.9 °F 68% 30.47 in 10.0 mi SSW 8.1 mph - N/A   Mostly Cloudy
11:52 AM 24.1 °F 15.2 °F 12.9 °F 62% 30.45 in 10.0 mi SSW 8.1 mph - N/A   Mostly Cloudy
12:52 PM 27.0 °F 20.5 °F 16.0 °F 63% 30.41 in 10.0 mi SSW 5.8 mph - N/A   Mostly Cloudy
1:52 PM 28.0 °F 20.0 °F 16.0 °F 61% 30.41 in 10.0 mi SW 8.1 mph - N/A   Overcast
2:52 PM 28.9 °F 21.1 °F 16.0 °F 58% 30.41 in 10.0 mi SSW 8.1 mph - N/A   Overcast
3:52 PM 28.9 °F 20.4 °F 17.1 °F 61% 30.41 in 10.0 mi SSW 9.2 mph - N/A   Overcast
4:52 PM 28.9 °F 20.4 °F 17.1 °F 61% 30.42 in 10.0 mi South 9.2 mph - N/A   Overcast
5:52 PM 28.0 °F 24.2 °F 17.1 °F 63% 30.43 in 10.0 mi SW 3.5 mph - N/A   Overcast
6:52 PM 28.0 °F - 17.1 °F 63% 30.44 in 10.0 mi Calm Calm - N/A   Overcast
7:52 PM 27.0 °F - 18.0 °F 69% 30.45 in 10.0 mi Calm Calm - N/A   Overcast
8:52 PM 26.1 °F - 19.9 °F 78% 30.46 in 10.0 mi Calm Calm - N/A   Overcast
9:52 PM 27.0 °F - 18.0 °F 69% 30.47 in 10.0 mi Calm Calm - N/A   Overcast
10:27 PM 26.6 °F 22.6 °F 21.2 °F 80% 30.46 in 2.0 mi SW 3.5 mph - 0.00 in Snow Light Snow
10:33 PM 26.6 °F 21.2 °F 19.4 °F 74% 30.45 in 1.0 mi SSW 4.6 mph - 0.00 in Snow Light Snow
10:52 PM 26.1 °F 20.5 °F 23.0 °F 88% 30.49 in 1.0 mi West 4.6 mph - 0.01 in Snow Light Snow
11:15 PM 26.6 °F 22.6 °F 23.0 °F 86% 30.45 in 3.0 mi WNW 3.5 mph - 0.00 in Snow Light Snow
11:52 PM 26.1 °F - 23.0 °F 88% 30.48 in 6.0 mi Calm Calm - 0.00 in Snow Light Snow